Погода в Димитровграде

Россия / Ульяновская область     54°13′03″N   49°37′19″E
темп.,
°C
ветер,
м/с
пор.,
м/с
влажн.,
%
обл.,
%
осадки,
мм/ч
давл.,
гПа
погр.,
м
23 октября, сб
сб2301:00+10зюз614800 0.0 1006706
04:00+9юз513835 0.0 1007499
07:00+8юз513840 0.0 1008587
10:00+10зюз611720 0.0 1010946
13:00+12зюз614525 0.0 10101967
16:00+12зюз612467 0.0 10111716
19:00+8юз386129 0.0 1012175
22:00+8юз4115950 0.0 1012333
24 октября, вс
вс2401:00+7ююз31068100 0.1 1011282
04:00+7ююв3593100 4.6 1010214
07:00+6зюз37958 0.1 1010217
10:00+7з47785 0.1 1011507
13:00+9з57575 0.0 10121121
16:00+8з475918 0.0 10121234
19:00+5зсз497262 0.0 1014511
22:00+6з3565100 0.0 1014267
25 октября, пн
пн2501:00+5ююз1272100 0.0 101474
04:00+5ю2378100 0.0 101490
07:00+4з3682100 0.1 1014290
10:00+4зсз357974 0.1 1015703
13:00+4сз4795100 0.1 1016728
16:00+2с61184100 0.3 1018753
19:00+3с6115933 0.0 10221266
22:000с410685 0.0 1024697
26 октября, вт
вт2601:00−1ссз39763 0.0 1025413
04:00−1ссз377681 0.0 1027299
07:00−1сз257647 0.0 1027153
10:00+1з35615 0.0 1028369
13:00+4зюз474142 0.0 1026805
16:00+4зюз494298 0.0 1025735
19:00+2зюз4115497 0.0 1024392
22:00+2зюз4106546 0.0 1024353
27 октября, ср
ср2701:00+1зюз41071100 0.0 1023287
04:00+1зюз3971100 0.0 1022274
07:00+1зюз397365 0.0 1022266
10:00+3зюз41064100 0.0 1021420
13:00+6зюз5951100 0.0 1020651
16:00+7юз5114898 0.0 1019687
19:00+5юз51253100 0.0 1019503
22:00+4юз51252100 0.0 1018503